SCP
0 0 0 0 0 0 0 0 0 0 0 0 0 0 0 0 0 0 0 0 0 0 0 0 0 0 0 0 -0 -0 0 -0 -0 0 0 0 0 0 0 0 0 0 0 0 0 0 0 0 0 0 0 0 0 0
0 0 0 0 0 0 0 0 0 0 0 0 0 0 -0 0 0 0 0 0 0 0 0 0 0 0 0 0 0 0 0 0 0 0 0 0 0 0 0 0 0 0 0 0 0 0 0 0 0 0 0 0 0 0
0 0 0 0 0 0 0 0 0 0 0 0 0 0 0 0 0 0 0 0 0 0 0 0 0 0 0 0 0 0 0 0 -0 -0 -0 -0 0 0 0 0 0 0 0 0 0 0 0 0 0 0 -0 0 0 0
0 0 0 0 0 0 0 0 0 0 0 0 0 -0 -0 0 0 0 0 0 0 0 0 0 0 0 0 0 0 0 0 0 -0 -0 -0 -0 0 0 0 0 0 0 0 0 0 0 0 0 0 0 0 0 0 0
0 0 0 0 0 0 0 0 0 0 -0 0 -0 -0 0 0 0 0 0 0 0 0 0 0 0 0 0 0 0 0 0 0 0 0 0 -0 -0 -0 0 0 0 0 0 0 0 0 0 0 0 0 0 0 0 0
0 0 0 0 0 0 0 0 0 0 -0 -0 -0 -0 0 0 0 0 0 0 0 0 0 0 0 0 0 0 0 0 0 0 0 0 0 -0 -0 -0 0 0 0 0 0 0 0 0 0 0 0 0 0 0 0 0
-0 0 0 0 0 -0 -0 -0 0 -0 -0 0 0 0 0 -0 0 0 0 0 0 0 0 0 0 0 0 0 0 0 0 0 0 0 0 -0 0 0 -0 0 0 0 0 0 0 0 0 0 0 0 0 0 0 0
0 -0 -0 0 0 -0 -0 0 0 -0 0 0 -0 0 0 0 0 0 0 0 0 0 0 0 0 0 0 0 0 0 0 0 0 0 0 0 0 0 0 0 0 0 0 0 0 0 0 0 0 0 0 0 0 0
-0 -0 -0 -0 -0 -0 -0 0 0 -0 -0 -0 -0 0 0 0 0 0 0 0 0 0 -0 0 0 0 0 0 0 0 0 0 0 0 0 0 0 -0 -0 0 0 0 0 0 0 0 0 0 0 0 0 0 0 0
-0 -0 0 0 -0 0 -0 0 -0 -0 -0 -0 0 0 0 0 0 0 0 0 0 0 0 -0 0 0 0 0 0 0 0 0 0 -0 -0 0 0 0 0 0 0 0 0 0 0 0 0 0 0 0 0 0 0 0
-0 -0 0 0 0 0 0 0 0 -0 -0 0 0 0 0 0 0 0 -0 -0 -0 -0 0 0 0 0 0 0 0 0 0 0 0 -0 0 0 0 0 0 0 0 0 0 0 0 0 0 0 0 0 0 0 0 0
-0 -0 0 0 0 0 0 -0 -0 0 0 0 0 0 0 0 0 -0 -0 -0 -0 -0 0 -0 -0 0 0 0 0 0 0 0 -0 0 0 0 0 0 0 0 0 -0 -0 -0 0 0 0 0 0 0 0 0 0 0
-0 -0 -0 -0 0 0 0 0 0 0 0 0 -0 0 0 -0 -0 0 0 -0 -0 -0 -0 -0 -0 0 0 -0 0 0 0 -0 -0 0 0 0 0 0 0 0 0 -0 0 0 0 0 0 0 0 0 0 0 0 0
0 0 -0 0 0 0 0 0 0 0 0 -0 -0 -0 -0 -0 -0 -0 -0 -0 -0 -0 -0 -0 0 -0 -0 0 0 0 -0 -0 0 0 0 0 0 0 0 0 0 0 0 0 0 0 0 0 0 0 0 0 0 0
-0 0 -0 0 0 0 0 0 0 0 0 -0 -0 -0 -0 -0 -0 -0 -0 -0 -0 -0 -0 0 -0 0 0 0 0 0 0 -0 0 0 0 0 0 0 0 0 0 0 0 0 0 0 0 0 0 0 0 0 0 0
-0 -0 0 0 0 0 0 0 0 0 0 -0 -0 -0 -0 -0 -0 -0 -0 -0 -0 0 0 -0 0 -0 -0 -0 -0 -0 0 0 0 0 0 0 0 0 0 0 0 0 0 0 0 0 0 0 0 0 0 0 0 0
-0 0 0 0 0 0 0 0 0 0 0 -0 -0 -0 0 -0 0 0 -0 -0 0 0 0 -0 0 -0 -0 -0 0 0 0 -0 -0 0 0 0 0 0 0 0 0 0 0 0 0 0 0 0 0 0 0 0 0 0
0 0 0 0 0 0 0 0 0 0 -0 -0 -0 -0 0 0 -0 -0 0 0 0 0 0 -0 0 -0 0 -0 0 -0 -0 -0 0 0 0 0 0 0 0 0 0 0 0 0 0 0 0 0 0 0 0 0 0 0
0 0 0 0 0 0 0 0 0 0 0 0 -0 -0 0 0 0 0 0 0 0 0 0 0 0 0 0 0 0 0 0 0 0 0 0 0 0 0 0 0 0 -0 0 0 0 0 0 0 0 0 0 0 0 0
0 0 0 0 0 0 0 0 0 0 0 0 0 -0 -0 0 0 0 0 0 0 0 0 0 0 0 0 0 0 0 0 0 0 0 0 0 0 0 0 0 0 -0 -0 0 0 0 0 0 0 0 0 0 0 0
0 0 0 0 0 0 0 0 0 0 0 0 -0 -0 0 -0 0 0 0 0 0 0 0 0 0 0 0 0 0 0 0 0 0 0 0 0 0 0 0 0 0 0 0 0 0 0 0 0 0 0 0 0 0 0
0 0 0 0 0 0 0 0 0 0 0 0 0 0 0 0 -0 -0 0 0 0 0 0 0 0 0 0 0 0 0 0 0 0 0 0 0 0 0 0 0 0 0 0 0 0 0 0 0 0 0 0 0 0 0
0 0 0 0 0 0 0 0 0 0 -0 -0 0 0 0 0 -0 -0 0 0 0 0 0 0 0 0 0 0 0 0 0 0 0 0 0 0 0 0 0 0 0 0 0 0 0 0 0 0 0 0 0 0 0 0
0 0 0 0 0 0 0 0 0 0 0 0 0 0 0 0 0 0 -0 0 0 0 0 0 0 -0 0 0 0 0 0 0 -0 0 0 0 0 0 0 0 0 0 0 0 0 0 0 0 0 0 0 0 0 0
0 -0 0 0 0 0 0 0 0 0 0 0 0 0 0 0 0 0 -0 -0 -0 0 0 0 0 -0 0 0 0 -0 -0 0 0 0 0 0 0 0 0 0 0 0 0 0 0 0 0 0 0 0 0 0 0 0
0 0 0 0 0 0 0 0 0 0 0 0 0 0 0 0 0 -0 -0 0 0 0 0 -0 0 0 -0 -0 -0 -0 -0 -0 -0 0 0 -0 0 0 0 0 0 0 0 0 0 0 0 0 0 0 0 0 0 0
0 0 0 0 0 0 0 0 0 0 -0 -0 0 0 0 0 0 0 0 0 0 0 0 -0 -0 0 0 -0 -0 -0 -0 -0 -0 -0 0 -0 -0 -0 0 -0 -0 -0 -0 0 0 0 0 0 0 0 0 0 0 0
0 0 0 0 0 0 0 0 0 -0 -0 -0 0 0 0 0 0 0 0 0 0 0 0 0 -0 -0 -0 -0 -0 -0 0 0 0 -0 -0 -0 -0 -0 -0 -0 -0 -0 0 0 0 0 0 0 0 0 0 0 0 0
0 -0 -0 0 0 0 0 0 0 -0 -0 -0 -0 0 0 0 0 0 0 0 0 0 0 0 -0 -0 0 0 0 0 0 0 0 0 -0 -0 -0 -0 0 0 0 0 0 0 0 0 0 0 0 0 0 0 0 0
0 -0 -0 0 0 0 0 0 0 0 0 0 0 0 0 0 0 0 0 0 0 0 0 0 0 0 -0 -0 -0 0 0 0 0 -0 0 0 0 -0 -0 0 0 0 0 0 0 0 0 0 0 0 0 0 0 0
0 0 -0 0 0 0 0 0 0 0 0 0 0 0 0 0 0 0 0 0 0 0 0 0 0 0 0 0 0 0 0 0 -0 0 -0 -0 0 0 -0 0 0 0 0 0 0 0 0 0 0 0 0 0 0 0
0 0 -0 0 0 0 0 0 0 0 0 0 0 0 0 0 0 0 0 0 0 0 0 0 0 0 0 0 0 0 0 0 -0 -0 -0 -0 -0 0 0 0 0 0 0 0 0 0 0 0 0 0 0 0 0 0
0 0 0 0 0 0 0 0 0 0 0 0 0 0 0 0 0 0 0 0 0 0 0 0 0 0 0 0 0 0 -0 -0 -0 -0 -0 -0 -0 0 0 0 0 0 0 0 0 0 0 0 0 0 0 0 0 0
Wind_Speed_500mb
59 61 61 68 70 74 75 76 78 81 84 82 74 71 71 64 65 58 59 55 45 26 31 21 31 24 28 19 18 12 17 16 10 8 10 14 8 15 9 19 19 22 19 11 8 12 18 14 10 14 1 7 5 13
65 67 73 79 81 83 85 88 87 87 86 73 60 62 56 58 55 54 62 50 37 35 29 26 38 55 65 60 26 17 18 19 7 5 6 9 10 7 11 11 12 14 11 13 19 15 2 36 3 33 7 7 7 5
66 73 75 81 87 91 95 94 90 86 77 69 64 59 56 50 46 52 61 48 43 46 52 50 59 76 49 58 48 23 25 28 22 15 3 7 13 11 8 10 9 13 10 6 7 15 25 24 48 30 31 24 12 11
73 79 83 88 94 94 91 90 87 85 78 71 64 57 53 49 47 53 62 50 57 29 12 29 57 62 68 52 51 63 75 48 33 18 5 7 8 2 9 12 15 9 24 15 9 14 10 28 53 50 49 43 37 30
75 81 88 90 95 99 98 93 88 83 75 70 62 55 52 55 54 58 54 55 56 53 10 15 24 52 52 48 50 50 58 46 43 18 9 9 8 10 12 8 19 13 11 14 11 15 13 5 29 46 36 26 18 19
78 81 82 94 103 97 98 99 95 85 74 63 55 45 42 40 33 32 8 52 66 71 27 10 34 33 22 43 42 38 49 51 43 16 12 20 35 12 8 10 11 45 35 31 7 33 37 17 20 29 26 20 17 22
74 74 85 92 87 91 99 102 95 90 73 55 44 36 32 40 42 31 13 13 14 35 23 6 7 23 38 35 28 36 35 26 26 25 18 26 29 18 9 23 35 64 55 58 52 18 10 25 22 31 34 22 24 34
63 72 78 71 76 84 77 61 39 21 53 40 36 27 18 18 22 26 31 34 26 26 9 4 3 4 24 17 16 26 24 27 20 20 18 17 20 17 15 19 55 72 63 60 59 61 52 43 28 29 33 38 48 50
61 66 53 57 62 67 47 34 33 31 39 39 31 32 24 12 8 4 6 9 25 23 6 5 7 7 21 21 16 21 25 12 19 12 15 16 16 14 19 29 53 62 43 30 59 66 66 59 54 56 56 55 54 51
61 36 37 35 44 52 50 41 41 38 38 35 36 10 7 4 6 7 3 3 5 12 9 7 10 11 25 21 12 8 18 10 9 14 18 15 18 56 56 66 71 67 65 66 46 34 50 59 63 57 52 42 38 53
42 29 21 16 23 28 32 35 36 32 31 15 6 6 6 12 5 4 1 5 4 6 13 11 17 10 16 11 10 16 5 7 12 16 11 9 11 28 62 76 76 85 81 61 69 64 51 40 34 30 32 41 51 56
30 22 6 7 16 19 17 16 12 6 5 5 5 12 9 4 4 3 4 4 9 5 5 4 11 28 23 27 12 10 8 4 13 4 13 10 15 25 35 59 85 77 43 48 55 56 51 50 43 43 48 47 42 38
23 16 6 2 10 13 11 10 11 12 8 5 4 3 3 2 5 7 5 4 4 4 5 22 12 11 14 26 8 6 9 10 3 7 8 10 10 7 13 14 16 32 40 41 37 39 43 47 44 38 34 31 29 28
30 19 17 8 12 13 9 11 13 16 9 5 1 5 5 5 7 7 7 8 15 16 27 43 15 7 12 13 8 10 5 4 9 13 9 5 13 19 13 8 17 22 16 25 27 27 27 26 23 17 15 14 12 11
25 31 15 15 11 14 13 13 16 20 7 6 1 6 8 6 13 14 21 17 30 35 43 7 11 9 9 8 5 3 9 14 12 7 5 16 23 20 14 8 10 15 19 18 16 15 14 11 8 4 4 7 10 12
19 20 7 11 13 15 20 24 25 21 8 6 7 4 5 3 7 10 20 17 18 39 30 12 8 10 11 6 8 14 7 7 6 7 18 22 22 16 11 11 16 18 18 18 17 16 16 17 17 18 18 17 18 20
23 16 16 18 19 21 23 26 18 8 7 6 5 13 15 14 14 21 20 20 27 24 6 5 5 3 3 6 6 2 6 9 14 17 15 19 17 11 12 17 21 22 22 24 23 24 25 25 23 22 22 27 26 28
28 23 20 20 23 19 23 12 8 8 8 14 5 7 13 20 21 26 25 24 19 11 13 5 5 5 5 8 5 8 12 23 9 12 14 18 14 14 18 21 23 27 29 28 27 28 28 26 25 30 28 28 28 31
35 31 26 25 20 8 5 7 9 7 12 10 14 24 19 21 28 28 32 25 28 20 14 8 5 6 4 5 4 15 19 20 22 20 16 21 20 22 24 25 27 28 29 29 28 29 28 28 31 31 31 29 34 37
37 39 42 32 25 11 8 8 9 9 8 7 10 14 12 10 13 17 24 21 21 13 9 7 4 8 11 16 19 24 25 22 15 11 14 22 18 19 21 22 26 27 29 30 33 34 34 38 37 35 36 39 40 43
47 34 33 39 40 28 12 10 12 11 9 10 13 7 8 5 3 4 5 8 8 8 4 7 7 11 16 19 24 27 23 22 12 2 1 8 15 18 20 21 21 22 25 28 32 36 37 42 41 39 40 44 45 46
35 19 20 43 20 18 15 21 12 5 6 12 6 9 8 3 7 4 2 9 8 5 3 7 15 18 21 24 23 23 21 21 19 13 11 10 12 17 22 24 23 28 30 32 34 38 41 42 42 43 46 50 50 53
13 14 8 17 13 25 7 18 13 10 6 6 4 4 4 3 8 13 8 5 3 8 14 12 13 13 14 18 21 20 18 17 18 21 21 22 24 26 26 28 28 32 37 37 37 41 45 44 45 48 51 53 54 56
12 6 8 9 17 5 9 11 11 8 9 6 5 5 2 2 7 4 6 1 1 6 9 11 10 6 8 11 15 18 19 19 20 23 22 21 26 30 30 33 31 33 37 41 43 45 46 48 49 50 51 52 52 54
4 2 2 5 1 2 6 4 4 6 6 6 9 4 2 1 4 4 4 4 3 5 8 8 8 7 7 10 13 17 18 19 19 21 21 23 28 32 34 34 36 38 36 39 44 47 51 52 52 51 52 52 53 55
5 4 4 2 2 3 4 4 0 2 2 2 2 7 2 2 2 2 4 5 1 5 11 9 10 10 12 11 10 10 12 14 13 19 24 21 24 25 33 37 39 37 37 40 47 54 56 53 54 53 55 52 49 46
4 1 4 7 2 5 5 3 2 3 0 0 3 3 2 6 8 1 2 5 6 10 8 6 8 11 13 11 9 8 10 8 6 20 25 24 25 28 33 39 44 47 46 47 47 47 53 54 54 52 52 49 46 42
5 8 5 9 3 4 2 2 4 3 2 3 3 4 2 2 3 5 2 8 6 3 6 8 9 11 12 14 17 19 23 24 26 29 30 33 35 38 43 49 53 53 50 46 46 46 46 47 48 48 46 47 46 42
3 12 4 2 4 6 6 5 3 3 1 3 3 3 3 4 11 9 8 7 6 10 13 12 12 13 17 20 21 24 28 29 29 34 44 52 52 52 54 54 55 53 51 51 49 44 42 41 42 43 45 45 43 38
7 14 3 4 5 9 7 6 3 4 10 11 12 11 10 9 15 12 8 6 8 10 11 8 9 12 14 14 14 13 14 19 27 34 47 53 56 55 53 52 51 50 48 45 43 43 40 41 44 44 42 41 37 35
11 7 2 5 5 6 15 20 24 22 15 16 21 14 10 9 17 24 14 7 8 8 8 8 12 15 16 15 15 21 25 27 32 36 47 54 56 55 51 48 46 43 39 36 37 40 41 41 41 40 37 36 36 34
7 4 0 4 5 7 7 2 3 5 8 6 6 7 7 6 7 9 13 9 9 10 13 15 17 19 22 25 27 24 31 41 55 53 51 55 56 53 50 46 42 37 35 36 37 37 36 36 37 34 34 34 34 33
4 3 4 4 4 3 1 2 4 4 4 5 6 7 6 6 7 5 9 8 12 17 19 20 22 24 27 34 47 55 56 54 54 53 52 51 49 47 44 41 37 35 34 35 36 35 34 32 31 31 30 30 29 28
Wind_Direction_500mb
297 297 294 294 293 292 293 292 293 294 295 288 282 282 275 259 245 238 233 243 229 245 250 244 225 236 243 235 247 261 315 220 209 247 260 241 251 199 175 167 171 172 164 185 176 219 257 133 97 188 79 352 106 124
300 300 294 294 296 295 295 293 290 290 292 299 278 278 284 265 250 226 228 238 243 233 253 228 243 247 241 247 263 236 257 296 314 314 42 327 316 169 182 195 203 200 210 175 194 204 129 190 257 205 182 161 116 92
299 300 297 295 296 295 294 292 288 288 283 284 281 271 272 269 251 227 226 228 229 233 254 248 248 258 244 247 235 235 253 260 261 244 355 260 267 339 204 207 170 225 187 207 152 223 232 227 235 242 224 231 253 280
301 302 304 304 302 301 297 292 288 285 282 279 271 264 261 262 260 235 241 223 230 236 260 257 254 250 255 247 239 235 249 247 260 258 235 293 293 176 322 325 261 180 158 179 257 269 284 246 240 236 240 250 268 272
308 309 310 309 306 304 301 295 287 279 273 267 261 257 257 248 254 242 228 237 240 230 270 296 278 257 249 242 240 244 237 233 233 228 201 238 261 275 268 274 250 213 176 184 221 190 212 240 241 226 218 214 242 256
313 316 313 312 311 313 309 300 288 273 263 257 249 241 250 249 247 223 248 251 248 245 241 223 253 238 241 232 235 245 226 225 216 213 233 233 242 241 249 269 258 198 218 212 222 232 220 222 172 176 212 244 262 274
318 318 320 320 322 320 320 314 298 272 236 234 223 223 227 255 199 192 207 215 265 224 223 215 229 221 219 220 226 236 245 221 217 227 229 245 242 222 259 264 278 289 279 236 218 214 223 222 225 237 267 264 278 301
324 326 327 331 333 335 339 350 19 76 166 186 178 197 201 185 214 237 254 269 254 202 217 213 221 198 195 196 193 216 208 220 222 223 235 225 241 217 244 241 257 269 264 251 237 231 238 257 252 255 268 266 286 299
329 328 336 344 350 0 14 47 61 83 123 141 150 159 152 184 219 218 326 263 221 215 205 207 235 249 185 214 204 183 199 222 215 219 228 219 222 223 224 232 246 256 233 248 238 240 243 251 256 268 273 277 288 293
332 337 355 4 11 21 36 64 81 99 116 128 132 104 135 157 184 119 20 302 215 196 228 252 218 216 176 181 192 219 197 220 222 218 216 221 233 231 227 244 256 269 264 247 235 237 240 252 264 270 276 286 284 293
341 346 354 5 7 27 59 71 88 99 110 90 79 64 127 138 133 84 138 259 216 236 205 242 221 234 227 203 202 210 229 231 248 249 210 256 232 228 226 232 250 251 258 249 244 249 254 262 270 275 275 283 291 292
333 339 322 18 358 26 45 58 46 30 55 95 126 121 141 156 76 197 215 260 230 276 186 212 242 228 220 210 219 191 248 258 229 331 194 224 237 200 222 239 239 238 254 256 253 254 258 263 271 280 285 288 288 289
353 352 167 268 333 352 19 26 27 32 14 310 303 139 126 135 195 210 220 220 284 248 269 309 272 254 175 208 204 217 243 249 32 249 221 216 68 24 314 254 224 238 246 253 253 253 258 265 270 272 277 282 291 294
331 328 238 235 298 332 12 19 6 345 319 268 181 282 217 187 230 196 220 256 275 278 298 292 246 257 184 179 212 208 227 56 249 218 246 70 7 359 4 343 228 205 210 219 221 230 235 239 246 257 276 290 305 318
322 328 255 201 263 314 324 335 337 337 294 272 233 249 221 283 260 261 281 291 284 293 276 233 228 240 170 195 195 190 200 227 231 195 34 359 346 8 24 53 111 154 179 186 184 192 194 194 189 165 94 64 51 42
299 311 288 226 260 294 317 322 324 314 256 241 233 244 216 284 276 284 290 270 305 307 300 217 219 175 188 183 170 221 248 259 27 2 347 340 350 6 22 65 93 109 121 127 132 131 130 128 120 106 94 80 68 61
298 279 273 272 272 296 309 316 319 257 249 250 244 242 239 276 261 274 283 297 323 308 308 311 250 177 64 214 243 239 320 360 341 331 340 343 339 355 55 77 91 98 104 105 109 109 110 108 105 105 94 79 74 71
286 287 271 266 265 281 304 284 247 262 260 247 246 258 246 246 270 287 293 307 324 303 296 358 286 236 309 346 18 8 336 336 340 356 349 349 5 50 72 85 91 96 99 100 102 106 109 111 107 93 92 90 90 85
299 289 264 255 247 257 266 247 225 262 255 265 258 265 265 271 276 280 287 305 310 306 306 333 358 16 2 23 309 315 343 347 325 327 355 20 45 69 84 90 93 96 102 105 107 105 103 102 101 101 99 101 97 92
282 275 271 225 228 202 224 242 218 248 267 271 257 257 252 245 273 291 298 314 325 1 29 17 13 352 326 326 329 333 335 331 330 346 22 31 59 79 90 94 92 91 92 93 98 101 103 102 101 102 103 101 99 95
297 293 266 221 200 198 209 228 233 225 248 249 274 238 263 262 266 288 334 323 37 27 13 334 318 319 333 340 348 349 2 358 3 21 7 28 76 92 97 94 93 99 103 105 106 106 107 102 103 106 107 101 98 98
294 284 259 204 200 200 232 218 224 223 240 258 255 219 250 170 141 146 129 47 50 5 320 282 303 330 355 3 7 17 17 23 33 50 106 93 95 99 99 99 108 111 112 111 113 109 105 105 107 107 105 103 102 101
273 239 196 180 182 199 229 197 187 216 231 214 238 223 219 152 131 141 73 51 65 347 324 313 319 316 356 14 22 28 45 60 77 86 100 108 105 102 104 108 113 116 116 115 116 114 112 112 113 110 109 108 106 103
240 228 194 211 206 189 181 197 208 211 212 212 215 256 240 94 117 60 102 72 10 354 347 352 342 338 348 14 32 45 56 65 78 89 90 100 106 105 107 108 111 113 115 118 119 116 115 115 114 114 112 110 107 103
261 291 320 208 299 273 218 216 200 206 231 183 201 227 107 4 100 105 115 157 170 16 39 54 42 45 27 30 39 48 54 57 65 83 93 100 105 110 112 113 114 115 119 123 121 121 119 119 119 115 112 108 105 101
224 323 358 26 17 332 16 265 60 37 299 212 84 342 355 89 40 234 96 290 278 10 19 45 59 61 51 52 47 53 69 79 91 109 106 109 114 119 120 119 119 119 125 127 127 126 123 121 118 114 109 105 101 99
210 351 6 34 324 306 278 280 290 273 137 191 26 328 202 163 231 77 55 19 8 343 3 41 52 48 49 53 71 99 118 113 111 117 113 117 121 125 129 129 127 124 126 127 126 124 121 119 116 113 109 105 100 96
67 18 9 336 43 29 316 342 18 49 41 2 237 28 69 86 196 320 308 348 359 62 117 120 97 80 87 97 97 102 109 114 116 115 117 118 117 120 122 122 119 118 122 123 122 119 119 118 115 112 110 108 104 98
36 349 337 33 88 69 55 12 19 80 295 340 15 84 83 4 346 350 357 20 81 113 119 117 110 106 109 109 113 118 123 126 124 130 128 121 123 122 122 122 121 123 123 122 120 117 113 111 114 114 108 102 96 90
354 358 351 68 47 23 23 17 55 129 138 125 109 109 78 67 45 45 48 90 131 142 143 136 132 136 139 138 135 138 141 139 140 144 138 134 131 128 126 126 127 127 127 125 122 123 124 122 115 109 103 98 94 91
338 348 61 66 92 111 94 93 100 98 90 95 107 110 124 125 65 47 54 96 135 150 153 152 150 152 158 160 150 141 136 138 140 139 136 130 124 122 123 123 122 121 123 124 123 123 122 119 114 109 105 101 96 93
343 342 43 116 147 196 214 233 177 145 141 121 112 116 111 69 33 33 33 86 126 143 151 151 152 153 148 143 140 138 137 135 131 133 131 127 124 124 124 124 124 125 125 123 121 121 121 118 115 110 106 102 98 94
332 20 38 89 127 148 187 192 185 134 110 109 115 136 133 122 120 130 73 101 141 150 149 146 144 144 141 137 133 132 131 130 130 130 127 125 123 124 124 124 125 125 125 123 123 124 125 122 117 112 106 103 99 95
Wind_Speed_850mb
59 61 61 68 70 74 75 76 78 81 84 82 74 71 71 64 65 58 59 55 45 26 31 21 31 24 28 19 18 12 17 16 10 8 10 14 8 15 9 19 19 22 19 11 8 12 18 14 10 14 1 7 5 13
65 67 73 79 81 83 85 88 87 87 86 73 60 62 56 58 55 54 62 50 37 35 29 26 38 55 65 60 26 17 18 19 7 5 6 9 10 7 11 11 12 14 11 13 19 15 2 36 3 33 7 7 7 5
66 73 75 81 87 91 95 94 90 86 77 69 64 59 56 50 46 52 61 48 43 46 52 50 59 76 49 58 48 23 25 28 22 15 3 7 13 11 8 10 9 13 10 6 7 15 25 24 48 30 31 24 12 11
73 79 83 88 94 94 91 90 87 85 78 71 64 57 53 49 47 53 62 50 57 29 12 29 57 62 68 52 51 63 75 48 33 18 5 7 8 2 9 12 15 9 24 15 9 14 10 28 53 50 49 43 37 30
75 81 88 90 95 99 98 93 88 83 75 70 62 55 52 55 54 58 54 55 56 53 10 15 24 52 52 48 50 50 58 46 43 18 9 9 8 10 12 8 19 13 11 14 11 15 13 5 29 46 36 26 18 19
78 81 82 94 103 97 98 99 95 85 74 63 55 45 42 40 33 32 8 52 66 71 27 10 34 33 22 43 42 38 49 51 43 16 12 20 35 12 8 10 11 45 35 31 7 33 37 17 20 29 26 20 17 22
74 74 85 92 87 91 99 102 95 90 73 55 44 36 32 40 42 31 13 13 14 35 23 6 7 23 38 35 28 36 35 26 26 25 18 26 29 18 9 23 35 64 55 58 52 18 10 25 22 31 34 22 24 34
63 72 78 71 76 84 77 61 39 21 53 40 36 27 18 18 22 26 31 34 26 26 9 4 3 4 24 17 16 26 24 27 20 20 18 17 20 17 15 19 55 72 63 60 59 61 52 43 28 29 33 38 48 50
61 66 53 57 62 67 47 34 33 31 39 39 31 32 24 12 8 4 6 9 25 23 6 5 7 7 21 21 16 21 25 12 19 12 15 16 16 14 19 29 53 62 43 30 59 66 66 59 54 56 56 55 54 51
61 36 37 35 44 52 50 41 41 38 38 35 36 10 7 4 6 7 3 3 5 12 9 7 10 11 25 21 12 8 18 10 9 14 18 15 18 56 56 66 71 67 65 66 46 34 50 59 63 57 52 42 38 53
42 29 21 16 23 28 32 35 36 32 31 15 6 6 6 12 5 4 1 5 4 6 13 11 17 10 16 11 10 16 5 7 12 16 11 9 11 28 62 76 76 85 81 61 69 64 51 40 34 30 32 41 51 56
30 22 6 7 16 19 17 16 12 6 5 5 5 12 9 4 4 3 4 4 9 5 5 4 11 28 23 27 12 10 8 4 13 4 13 10 15 25 35 59 85 77 43 48 55 56 51 50 43 43 48 47 42 38
23 16 6 2 10 13 11 10 11 12 8 5 4 3 3 2 5 7 5 4 4 4 5 22 12 11 14 26 8 6 9 10 3 7 8 10 10 7 13 14 16 32 40 41 37 39 43 47 44 38 34 31 29 28
30 19 17 8 12 13 9 11 13 16 9 5 1 5 5 5 7 7 7 8 15 16 27 43 15 7 12 13 8 10 5 4 9 13 9 5 13 19 13 8 17 22 16 25 27 27 27 26 23 17 15 14 12 11
25 31 15 15 11 14 13 13 16 20 7 6 1 6 8 6 13 14 21 17 30 35 43 7 11 9 9 8 5 3 9 14 12 7 5 16 23 20 14 8 10 15 19 18 16 15 14 11 8 4 4 7 10 12
19 20 7 11 13 15 20 24 25 21 8 6 7 4 5 3 7 10 20 17 18 39 30 12 8 10 11 6 8 14 7 7 6 7 18 22 22 16 11 11 16 18 18 18 17 16 16 17 17 18 18 17 18 20
23 16 16 18 19 21 23 26 18 8 7 6 5 13 15 14 14 21 20 20 27 24 6 5 5 3 3 6 6 2 6 9 14 17 15 19 17 11 12 17 21 22 22 24 23 24 25 25 23 22 22 27 26 28
28 23 20 20 23 19 23 12 8 8 8 14 5 7 13 20 21 26 25 24 19 11 13 5 5 5 5 8 5 8 12 23 9 12 14 18 14 14 18 21 23 27 29 28 27 28 28 26 25 30 28 28 28 31
35 31 26 25 20 8 5 7 9 7 12 10 14 24 19 21 28 28 32 25 28 20 14 8 5 6 4 5 4 15 19 20 22 20 16 21 20 22 24 25 27 28 29 29 28 29 28 28 31 31 31 29 34 37
37 39 42 32 25 11 8 8 9 9 8 7 10 14 12 10 13 17 24 21 21 13 9 7 4 8 11 16 19 24 25 22 15 11 14 22 18 19 21 22 26 27 29 30 33 34 34 38 37 35 36 39 40 43
47 34 33 39 40 28 12 10 12 11 9 10 13 7 8 5 3 4 5 8 8 8 4 7 7 11 16 19 24 27 23 22 12 2 1 8 15 18 20 21 21 22 25 28 32 36 37 42 41 39 40 44 45 46
35 19 20 43 20 18 15 21 12 5 6 12 6 9 8 3 7 4 2 9 8 5 3 7 15 18 21 24 23 23 21 21 19 13 11 10 12 17 22 24 23 28 30 32 34 38 41 42 42 43 46 50 50 53
13 14 8 17 13 25 7 18 13 10 6 6 4 4 4 3 8 13 8 5 3 8 14 12 13 13 14 18 21 20 18 17 18 21 21 22 24 26 26 28 28 32 37 37 37 41 45 44 45 48 51 53 54 56
12 6 8 9 17 5 9 11 11 8 9 6 5 5 2 2 7 4 6 1 1 6 9 11 10 6 8 11 15 18 19 19 20 23 22 21 26 30 30 33 31 33 37 41 43 45 46 48 49 50 51 52 52 54
4 2 2 5 1 2 6 4 4 6 6 6 9 4 2 1 4 4 4 4 3 5 8 8 8 7 7 10 13 17 18 19 19 21 21 23 28 32 34 34 36 38 36 39 44 47 51 52 52 51 52 52 53 55
5 4 4 2 2 3 4 4 0 2 2 2 2 7 2 2 2 2 4 5 1 5 11 9 10 10 12 11 10 10 12 14 13 19 24 21 24 25 33 37 39 37 37 40 47 54 56 53 54 53 55 52 49 46
4 1 4 7 2 5 5 3 2 3 0 0 3 3 2 6 8 1 2 5 6 10 8 6 8 11 13 11 9 8 10 8 6 20 25 24 25 28 33 39 44 47 46 47 47 47 53 54 54 52 52 49 46 42
5 8 5 9 3 4 2 2 4 3 2 3 3 4 2 2 3 5 2 8 6 3 6 8 9 11 12 14 17 19 23 24 26 29 30 33 35 38 43 49 53 53 50 46 46 46 46 47 48 48 46 47 46 42
3 12 4 2 4 6 6 5 3 3 1 3 3 3 3 4 11 9 8 7 6 10 13 12 12 13 17 20 21 24 28 29 29 34 44 52 52 52 54 54 55 53 51 51 49 44 42 41 42 43 45 45 43 38
7 14 3 4 5 9 7 6 3 4 10 11 12 11 10 9 15 12 8 6 8 10 11 8 9 12 14 14 14 13 14 19 27 34 47 53 56 55 53 52 51 50 48 45 43 43 40 41 44 44 42 41 37 35
11 7 2 5 5 6 15 20 24 22 15 16 21 14 10 9 17 24 14 7 8 8 8 8 12 15 16 15 15 21 25 27 32 36 47 54 56 55 51 48 46 43 39 36 37 40 41 41 41 40 37 36 36 34
7 4 0 4 5 7 7 2 3 5 8 6 6 7 7 6 7 9 13 9 9 10 13 15 17 19 22 25 27 24 31 41 55 53 51 55 56 53 50 46 42 37 35 36 37 37 36 36 37 34 34 34 34 33
4 3 4 4 4 3 1 2 4 4 4 5 6 7 6 6 7 5 9 8 12 17 19 20 22 24 27 34 47 55 56 54 54 53 52 51 49 47 44 41 37 35 34 35 36 35 34 32 31 31 30 30 29 28
Wind_Direction_850mb
297 297 294 294 293 292 293 292 293 294 295 288 282 282 275 259 245 238 233 243 229 245 250 244 225 236 243 235 247 261 315 220 209 247 260 241 251 199 175 167 171 172 164 185 176 219 257 133 97 188 79 352 106 124
300 300 294 294 296 295 295 293 290 290 292 299 278 278 284 265 250 226 228 238 243 233 253 228 243 247 241 247 263 236 257 296 314 314 42 327 316 169 182 195 203 200 210 175 194 204 129 190 257 205 182 161 116 92
299 300 297 295 296 295 294 292 288 288 283 284 281 271 272 269 251 227 226 228 229 233 254 248 248 258 244 247 235 235 253 260 261 244 355 260 267 339 204 207 170 225 187 207 152 223 232 227 235 242 224 231 253 280
301 302 304 304 302 301 297 292 288 285 282 279 271 264 261 262 260 235 241 223 230 236 260 257 254 250 255 247 239 235 249 247 260 258 235 293 293 176 322 325 261 180 158 179 257 269 284 246 240 236 240 250 268 272
308 309 310 309 306 304 301 295 287 279 273 267 261 257 257 248 254 242 228 237 240 230 270 296 278 257 249 242 240 244 237 233 233 228 201 238 261 275 268 274 250 213 176 184 221 190 212 240 241 226 218 214 242 256
313 316 313 312 311 313 309 300 288 273 263 257 249 241 250 249 247 223 248 251 248 245 241 223 253 238 241 232 235 245 226 225 216 213 233 233 242 241 249 269 258 198 218 212 222 232 220 222 172 176 212 244 262 274
318 318 320 320 322 320 320 314 298 272 236 234 223 223 227 255 199 192 207 215 265 224 223 215 229 221 219 220 226 236 245 221 217 227 229 245 242 222 259 264 278 289 279 236 218 214 223 222 225 237 267 264 278 301
324 326 327 331 333 335 339 350 19 76 166 186 178 197 201 185 214 237 254 269 254 202 217 213 221 198 195 196 193 216 208 220 222 223 235 225 241 217 244 241 257 269 264 251 237 231 238 257 252 255 268 266 286 299
329 328 336 344 350 0 14 47 61 83 123 141 150 159 152 184 219 218 326 263 221 215 205 207 235 249 185 214 204 183 199 222 215 219 228 219 222 223 224 232 246 256 233 248 238 240 243 251 256 268 273 277 288 293
332 337 355 4 11 21 36 64 81 99 116 128 132 104 135 157 184 119 20 302 215 196 228 252 218 216 176 181 192 219 197 220 222 218 216 221 233 231 227 244 256 269 264 247 235 237 240 252 264 270 276 286 284 293
341 346 354 5 7 27 59 71 88 99 110 90 79 64 127 138 133 84 138 259 216 236 205 242 221 234 227 203 202 210 229 231 248 249 210 256 232 228 226 232 250 251 258 249 244 249 254 262 270 275 275 283 291 292
333 339 322 18 358 26 45 58 46 30 55 95 126 121 141 156 76 197 215 260 230 276 186 212 242 228 220 210 219 191 248 258 229 331 194 224 237 200 222 239 239 238 254 256 253 254 258 263 271 280 285 288 288 289
353 352 167 268 333 352 19 26 27 32 14 310 303 139 126 135 195 210 220 220 284 248 269 309 272 254 175 208 204 217 243 249 32 249 221 216 68 24 314 254 224 238 246 253 253 253 258 265 270 272 277 282 291 294
331 328 238 235 298 332 12 19 6 345 319 268 181 282 217 187 230 196 220 256 275 278 298 292 246 257 184 179 212 208 227 56 249 218 246 70 7 359 4 343 228 205 210 219 221 230 235 239 246 257 276 290 305 318
322 328 255 201 263 314 324 335 337 337 294 272 233 249 221 283 260 261 281 291 284 293 276 233 228 240 170 195 195 190 200 227 231 195 34 359 346 8 24 53 111 154 179 186 184 192 194 194 189 165 94 64 51 42
299 311 288 226 260 294 317 322 324 314 256 241 233 244 216 284 276 284 290 270 305 307 300 217 219 175 188 183 170 221 248 259 27 2 347 340 350 6 22 65 93 109 121 127 132 131 130 128 120 106 94 80 68 61
298 279 273 272 272 296 309 316 319 257 249 250 244 242 239 276 261 274 283 297 323 308 308 311 250 177 64 214 243 239 320 360 341 331 340 343 339 355 55 77 91 98 104 105 109 109 110 108 105 105 94 79 74 71
286 287 271 266 265 281 304 284 247 262 260 247 246 258 246 246 270 287 293 307 324 303 296 358 286 236 309 346 18 8 336 336 340 356 349 349 5 50 72 85 91 96 99 100 102 106 109 111 107 93 92 90 90 85
299 289 264 255 247 257 266 247 225 262 255 265 258 265 265 271 276 280 287 305 310 306 306 333 358 16 2 23 309 315 343 347 325 327 355 20 45 69 84 90 93 96 102 105 107 105 103 102 101 101 99 101 97 92
282 275 271 225 228 202 224 242 218 248 267 271 257 257 252 245 273 291 298 314 325 1 29 17 13 352 326 326 329 333 335 331 330 346 22 31 59 79 90 94 92 91 92 93 98 101 103 102 101 102 103 101 99 95
297 293 266 221 200 198 209 228 233 225 248 249 274 238 263 262 266 288 334 323 37 27 13 334 318 319 333 340 348 349 2 358 3 21 7 28 76 92 97 94 93 99 103 105 106 106 107 102 103 106 107 101 98 98
294 284 259 204 200 200 232 218 224 223 240 258 255 219 250 170 141 146 129 47 50 5 320 282 303 330 355 3 7 17 17 23 33 50 106 93 95 99 99 99 108 111 112 111 113 109 105 105 107 107 105 103 102 101
273 239 196 180 182 199 229 197 187 216 231 214 238 223 219 152 131 141 73 51 65 347 324 313 319 316 356 14 22 28 45 60 77 86 100 108 105 102 104 108 113 116 116 115 116 114 112 112 113 110 109 108 106 103
240 228 194 211 206 189 181 197 208 211 212 212 215 256 240 94 117 60 102 72 10 354 347 352 342 338 348 14 32 45 56 65 78 89 90 100 106 105 107 108 111 113 115 118 119 116 115 115 114 114 112 110 107 103
261 291 320 208 299 273 218 216 200 206 231 183 201 227 107 4 100 105 115 157 170 16 39 54 42 45 27 30 39 48 54 57 65 83 93 100 105 110 112 113 114 115 119 123 121 121 119 119 119 115 112 108 105 101
224 323 358 26 17 332 16 265 60 37 299 212 84 342 355 89 40 234 96 290 278 10 19 45 59 61 51 52 47 53 69 79 91 109 106 109 114 119 120 119 119 119 125 127 127 126 123 121 118 114 109 105 101 99
210 351 6 34 324 306 278 280 290 273 137 191 26 328 202 163 231 77 55 19 8 343 3 41 52 48 49 53 71 99 118 113 111 117 113 117 121 125 129 129 127 124 126 127 126 124 121 119 116 113 109 105 100 96
67 18 9 336 43 29 316 342 18 49 41 2 237 28 69 86 196 320 308 348 359 62 117 120 97 80 87 97 97 102 109 114 116 115 117 118 117 120 122 122 119 118 122 123 122 119 119 118 115 112 110 108 104 98
36 349 337 33 88 69 55 12 19 80 295 340 15 84 83 4 346 350 357 20 81 113 119 117 110 106 109 109 113 118 123 126 124 130 128 121 123 122 122 122 121 123 123 122 120 117 113 111 114 114 108 102 96 90
354 358 351 68 47 23 23 17 55 129 138 125 109 109 78 67 45 45 48 90 131 142 143 136 132 136 139 138 135 138 141 139 140 144 138 134 131 128 126 126 127 127 127 125 122 123 124 122 115 109 103 98 94 91
338 348 61 66 92 111 94 93 100 98 90 95 107 110 124 125 65 47 54 96 135 150 153 152 150 152 158 160 150 141 136 138 140 139 136 130 124 122 123 123 122 121 123 124 123 123 122 119 114 109 105 101 96 93
343 342 43 116 147 196 214 233 177 145 141 121 112 116 111 69 33 33 33 86 126 143 151 151 152 153 148 143 140 138 137 135 131 133 131 127 124 124 124 124 124 125 125 123 121 121 121 118 115 110 106 102 98 94
332 20 38 89 127 148 187 192 185 134 110 109 115 136 133 122 120 130 73 101 141 150 149 146 144 144 141 137 133 132 131 130 130 130 127 125 123 124 124 124 125 125 125 123 123 124 125 122 117 112 106 103 99 95